www.pogodaiklimat.ru

Погода и климат >> Архив погоды >> Словакия >> Прешов


ПОГОДА в Прешове

  • Прогноз погоды в Прешове
  • Монитор погоды в Прешове

АРХИВ ПОГОДЫ в Прешове

Время (UTC), дата Ветер
(напр.,м/с)
 
Видим.   Явления Облачность Т
(С)
Тd
(С)
f
(%)
Тe
(С)
Тes
(С)
Комфортность P
(гПа)
Po
(гПа)
Тmin
(С)
Tmax
(С)
R
(мм)
R24
(мм)
S
(см)
10 18.06 СЗ 3 30 км 6/6 800 м
[Cu Sc]
+23.4 +16.0 63 +28 +34 душно 1018.0 983.0
11 18.06 С 3 30 км 8/8 900 м
[Cu Sc]
+23.9 +16.7 64 +27 +30 жарко 1017.5 982.6
12 18.06 С 4 30 км 6/6 840 м
[Cu Sc]
+25.0 +16.7 60 +29 +33 душно 1016.9 982.1
13 18.06 С 3 30 км 8/5 870 м
[Cu Sc Ci fib]
+25.4 +16.8 59 +29 +34 душно 1016.3 981.6
14 18.06 СВ 3 30 км 5/4 1000 м
[Cu hum Ci fib]
+26.0 +16.6 56 +30 +34 душно 1015.7 981.1
15 18.06 СВ 3 30 км 4/3 1200 м
[Cu hum Ci fib]
+25.7 +16.3 56 +29 +33 душно 1015.2 980.5
16 18.06 С 2 30 км 5/3 1050 м
[Cu hum Ac trans]
+24.4 +16.4 61 +28 +30 душно 1015.3 980.5
17 18.06 С 2 30 км 5/3 1050 м
[Cu hum Ac trans]
+23.4 +16.7 66 +28 +29 душно 1015.6 980.7
18 18.06 С 2 20 км 6/3 1200 м
[Cu hum Ac trans]
+21.9 +17.1 74 +26 +26 душно 1015.9 980.8 +26.2
19 18.06 С 1 20 км 8/1 1200 м
[Cb cap Ac trans Ci fib]
+21.3 +17.5 79 +25 +25 комфорт 1016.4 981.2
20 18.06 ЮЗ 1 20 км 8/0
[Ac lent Cs]
+20.2 +17.2 83 +24 +24 комфорт 1016.5 981.2
21 18.06 нст 2 25 км н/о +19.0 +17.3 90 +21 +21 комфорт 1016.0 980.6
22 18.06 нст 1 20 км н/о +19.3 +17.6 90 +22 +22 комфорт 1016.2 980.8
23 18.06 Ю 2 14 км н/о +18.4 +17.2 93 +20 +20 1016.0 980.5
00 19.06 нст 2 13 км н/о +18.2 +17.2 94 +19 +19 1015.8 980.3
01 19.06 нст 2 13 км н/о +18.2 +17.2 94 +19 +19 1015.4 979.9
02 19.06 Ю 3 11 км н/о +17.2 +16.2 94 +17 +17 1015.5 979.8
03 19.06 Ю 2 12 км слаб. дождь {гроза} 8/8 720 м
[Cu hum As op]
+17.7 +16.7 94 +18 +18 1015.3 979.7
04 19.06 Ю 2 12 км {дождь} 8/8 750 м
[Cu hum Ac lent]
+17.7 +16.7 94 +18 +18 1015.7 980.1
05 19.06 ЮЗ 1 12 км 8/8 120 м
[Sc Ac trans]
+18.8 +17.1 90 +21 +22 комфорт 1015.6 980.1
06 19.06 Ю 1 12 км {гроза, дождь} 9/9 120 м
[Sc Ac As]
+19.7 +17.1 85 +23 +24 комфорт 1015.7 980.3 +17.2 1
07 19.06 штиль 0 15 км 6/6 150 м
[Sc Ac trans]
+20.2 +17.6 85 +23 +28 комфорт 1015.1 979.8
08 19.06 ЮЗ 1 15 км 5/5 500 м
[Cu hum Ac trans]
+22.9 +18.4 76 +29 +36 очень
душно
1014.9 980.0
09 19.06 СВ 1 20 км 5/4 750 м
[Cu med, cong Ci fib]
+25.1 +17.8 64 +29 +40 душно 1014.0 979.3
10 19.06 Ю 1 20 км 5/5 1050 м
[Cb cap Ac trans]
+27.3 +19.4 62 +33 +43 очень
душно
1013.5 979.1
11 19.06 СВ 2 10 км гроза, ливневой дождь 9/4 660 м
[Cb cap Ac As]
+24.7 +20.0 75 +30 +35 очень
душно
1013.2 978.6
12 19.06 З 5 20 км гроза, ливневой дождь 10/4 660 м
[Cb cap Ac As]
+20.0 +15.6 76 +22 +24 комфорт 1014.5 979.2 1
13 19.06 С 1 20 км гроза, ливневой дождь 9/3 700 м
[Cb cap Ac trans]
+21.3 +17.9 81 +25 +31 комфорт 1013.4 978.3
14 19.06 В 1 20 км в посл. час гроза {дождь} 8/4 900 м
[Cb calv Ac trans]
+23.6 +19.1 76 +28 +33 душно 1012.5 977.7
15 19.06 СВ 2 20 км {гроза, дождь} 8/4 900 м
[Cb calv Ac trans]
+22.8 +18.2 75 +28 +31 душно 1012.3 977.4
16 19.06 СВ 1 20 км 8/4 1000 м
[Cb calv Ac trans]
+23.3 +17.8 71 +29 +30 душно 1011.8 977.0
17 19.06 СВ 1 20 км 8/3 1200 м
[Cu med, cong Ac trans]
+24.3 +18.5 70 +29 +29 душно 1011.7 977.0
18 19.06 Ю 1 20 км {гроза, дождь} 8/1 1200 м
[Cu hum Ac trans]
+23.3 +18.6 75 +29 +30 душно 1012.1 977.3 +27.5 1
19 19.06 В 2 20 км 9/1 1200 м
[Cu hum Ac trans Ci fib]
+22.4 +19.0 81 +28 +28 душно 1012.2 977.3
20 19.06 В 2 20 км 9/0
[Ac trans Ci fib]
+20.4 +18.5 89 +25 +25 комфорт 1012.7 977.6
21 19.06 нст 4 40 км н/о +20.7 +17.9 84 +25 +25 комфорт 1012.7 977.6
22 19.06 Ю 6 35 км н/о +20.1 +17.7 86 +23 +23 комфорт 1012.8 977.6
01 20.06 нст 1 19 км н/о +18.0 +16.7 92 +19 +19 1012.4 977.0
02 20.06 штиль 0 7000 м н/о +17.0 +16.0 94 +17 +17 1012.4 976.8
03 20.06 СВ 2 6000 м дымка 8/3 60 м
[St Ac trans Ci fib]
+16.8 +16.0 95 +17 +17 1012.8 977.2
04 20.06 СВ 1 3000 м дымка 8/4 60 м
[St Ac trans Ci fib]
+17.4 +16.8 96 +18 +19 1012.9 977.4
05 20.06 нст 1 8000 м дымка 8/3 90 м
[St Ac trans Ci fib]
+19.0 +18.0 94 +22 +23 комфорт 1012.8 977.5
06 20.06 нст 1 10 км 8/1 90 м
[St Ac trans]
+20.1 +17.3 84 +24 +28 комфорт 1013.2 978.0 +16.6
07 20.06 Ю 4 15 км 8/3 1500 м
[Cu hum Ac trans]
+20.5 +16.3 77 +24 +26 комфорт 1013.2 978.0
08 20.06 Ю 1 20 км слаб. дождь 9/5 800 м
[Sc Ac trans]
+20.5 +16.9 80 +25 +29 комфорт 1013.2 978.0
09 20.06 Ю 1 30 км {дождь} 9/1 1500 м
[Sc Ac trans]
+21.8 +16.8 73 +26 +34 душно 1013.1 978.1
10 20.06 ЮЗ 2 30 км 6/0
[Ac trans Ci fib]
+23.9 +16.4 63 +27 +39 жарко 1012.8 978.0
11 20.06 нст 2 30 км 4/4 1200 м
[Cu hum]
+25.4 +15.2 53 +28 +39 жарко 1012.1 977.5
12 20.06 Ю 3 30 км {дождь} 5/4 1200 м
[Cu hum Ci fib]
+26.5 +15.3 50 +29 +37 жарко 1011.5 977.0 0.0
13 20.06 В 2 30 км 8/8 900 м
[Cu Sc Ac trans]
+26.2 +17.0 57 +30 +33 душно 1010.7 976.3
14 20.06 Ю 3 30 км 6/6 1200 м
[Cu hum Ac trans]
+25.2 +17.7 63 +29 +33 душно 1010.6 976.1
15 20.06 Ю 3 30 км 6/6 1200 м
[Cu hum Ac trans]
+23.6 +18.3 72 +28 +30 душно 1010.8 976.1
16 20.06 Ю 4 30 км 5/5 1200 м
[Cu hum Ac trans]
+24.6 +16.9 62 +28 +29 душно 1010.5 975.9
17 20.06 Ю 3 30 км 6/6 1200 м
[Cu hum Ac trans]
+23.2 +17.7 71 +29 +29 душно 1011.0 976.2
18 20.06 ЮЗ 3 30 км 6/0
[Ac trans]
+22.3 +16.6 70 +27 +27 душно 1011.5 976.6 +27.6
19 20.06 З 3 30 км 6/0
[Ac trans]
+20.8 +16.6 77 +25 +25 комфорт 1012.5 977.4
20 20.06 ЮЗ 2 20 км в посл. час ливневой дождь 8/0
[Ac trans]
+19.8 +17.2 85 +23 +23 комфорт 1012.8 977.6
21 20.06 Ю 2 40 км н/о +19.0 +17.0 88 +21 +21 комфорт 1013.0 977.6
22 20.06 З 2 40 км н/о +18.9 +17.0 89 +21 +21 комфорт 1013.1 977.7
23 20.06 нст 2 30 км н/о +17.6 +15.9 90 +18 +18 1013.0 977.5
00 21.06 нст 2 21 км н/о +17.0 +15.9 93 +17 +17 1013.3 977.7
01 21.06 нст 2 19 км н/о +16.4 +15.3 93 +16 +16 1013.9 978.2
02 21.06 Ю 2 13 км н/о +16.0 +15.0 94 +16 +16 1014.2 978.4
03 21.06 нст 1 20 км 5/0
[Ac trans]
+16.5 +15.7 95 +17 +17 1014.5 978.8
04 21.06 нст 1 20 км 8/0
[Ac trans]
+17.0 +16.2 95 +18 +19 1014.8 979.1
05 21.06 Ю 2 20 км 8/0
[Ac trans]
+17.5 +16.5 94 +18 +19 1014.8 979.2
06 21.06 З 1 20 км {дождь} 5/0
[Ac trans]
+20.7 +16.9 79 +25 +30 комфорт 1014.7 979.5 +15.5 0.0
07 21.06 С 2 20 км 8/3 600 м
[Cu hum Ac trans]
+22.0 +17.8 77 +27 +30 душно 1015.0 979.9
08 21.06 С 2 20 км 8/4 600 м
[Cu med, cong Ac trans]
+23.4 +17.6 70 +29 +34 душно 1014.9 980.0
09 21.06 В 4 20 км гроза без осадков 9/9 600 м
[Cb calv]
+23.7 +19.0 75 +28 +30 душно 1014.7 979.9
10 21.06 СВ 2 20 км гроза без осадков 9/9 700 м
[Cb calv]
+21.9 +17.3 75 +26 +28 душно 1015.3 980.2
11 21.06 ЮВ 1 10 км гроза, ливневой дождь 10/5 700 м
[Cb calv Ac As]
+20.3 +17.7 85 +25 +28 комфорт 1015.7 980.4
12 21.06 нст 2 20 км в посл. час гроза 9/3 1200 м
[Cu hum Ac As]
+21.8 +18.8 83 +27 +31 душно 1015.1 980.0 0.8
13 21.06 нст 2 20 км 9/1 400 м
[St Ac As]
+22.2 +18.8 81 +28 +32 душно 1015.1 980.1
14 21.06 нст 1 20 км 9/4 400 м
[Cu hum Ac As]
+23.6 +17.4 68 +27 +30 жарко 1014.6 979.7
15 21.06 нст 1 20 км 9/3 540 м
[Sc Ac As]
+23.2 +17.4 70 +29 +31 душно 1014.2 979.3
16 21.06 нст 2 20 км 9/1 540 м
[Sc Ac As]
+22.8 +19.0 79 +29 +30 очень
душно
1014.0 979.1
17 21.06 ЮВ 1 20 км 9/0 2000 м
[Ac trans Cs]
+22.5 +19.1 81 +28 +29 душно 1014.6 979.6
18 21.06 ЮВ 2 20 км 6/0
[Ci fib]
+21.5 +18.7 84 +26 +26 душно 1014.9 979.8 +24.5 0.8
19 21.06 ЮВ 3 20 км 8/4 1200 м
[Sc Ac trans Ci fib]
+19.7 +17.1 85 +22 +22 комфорт 1015.8 980.4
20 21.06 В 6 20 км гроза без осадков 9/9 750 м
[Cb cap]
+18.0 +16.2 89 1017.2
21 21.06 СВ 4 30 км н/о +18.3 +16.8 91 +19 +19 1017.0 981.4
22 21.06 С 1 30 км н/о +18.1 +16.6 91 +19 +19 1016.6 981.0
23 21.06 нст 1 24 км н/о +17.4 +16.1 92 +18 +18 1016.6 980.9
00 22.06 нст 2 27 км н/о +17.3 +16.3 94 +18 +18 1017.0 981.3
01 22.06 В 2 6000 м н/о +16.7 +15.9 95 +17 +17 1017.7 981.9
02 22.06 нст 3 н/о н/о +16.5 +15.9 96 +16 +16 1018.2 982.3
03 22.06 нст 1 10 км 8/4 60 м
[Sc diur, vesp Ac trans]
+16.5 +15.9 96 +17 +17 1018.9 983.0
04 22.06 нст 1 10 км 8/0
[Ac trans]
+17.2 +16.6 96 +18 +19 1019.0 983.2
05 22.06 СВ 2 10 км 8/3 1050 м
[Sc Ac trans]
+18.3 +17.5 95 +19 +21 1019.0 983.4
06 22.06 СВ 3 12 км 8/3 1080 м
[Sc Ac trans]
+19.9 +17.1 84 +23 +25 комфорт 1018.8 983.4 +16.3
07 22.06 С 3 15 км 9/5 450 м
[Sc Ac trans]
+21.1 +17.1 78 +25 +27 комфорт 1018.7 983.4
08 22.06 С 3 20 км 9/5 500 м
[Sc Ac trans]
+21.1 +16.7 76 +25 +27 комфорт 1018.8 983.5
09 22.06 СВ 5 20 км 9/5 720 м
[Sc Ac trans]
+21.8 +16.5 72 +26 +28 душно 1019.1 983.9
10 22.06 С 4 25 км 9/5 720 м
[Sc Ac trans]
+23.9 +15.9 61 +27 +30 жарко 1018.7 983.7
11 22.06 СВ 5 25 км 9/5 900 м
[Sc Ac trans]
+24.1 +16.9 64 +28 +30 душно 1018.3 983.4
12 22.06 СВ 5 30 км 6/5 900 м
[Cu Sc Ci fib]
+25.7 +15.4 53 +29 +33 душно 1017.4 982.7
13 22.06 С 4 30 км 6/5 960 м
[Cu med, cong Ci fib]
+25.5 +14.6 51 +28 +32 жарко 1016.9 982.1
14 22.06 С 5 30 км 8/6 1050 м
[Cu med, cong Ci fib]
+25.8 +16.4 56 +29 +31 душно 1016.6 981.9
15 22.06 С 5 30 км 8/5 900 м
[Cb cap Ac und]
+23.5 +15.8 62 +27 +28 душно 1016.8 981.8
16 22.06 С 5 30 км {гроза} 8/5 900 м
[Cb cap Ac trans]
+23.5 +15.8 62 +27 +27 душно 1016.8 981.8
17 22.06 СВ 7 30 км {гроза} 8/5 900 м
[Cb cap Ac trans]
+22.6 +15.0 62 +26 +26 жарко 1017.3 982.2
18 22.06 СВ 3 30 км 6/4 1500 м
[Sc Ac trans Ci fib]
+20.9 +17.5 81 +25 +25 комфорт 1017.1 981.8 +26.6
19 22.06 СВ 4 30 км 5/0
[Ac trans Ci fib]
+19.4 +16.2 82 +21 +21 комфорт 1017.0 981.5
20 22.06 СВ 3 20 км 3/0
[Ci fib]
+19.7 +16.6 82 +22 +22 комфорт 1017.4 982.0
21 22.06 нст 2 45 км н/о +18.9 +16.0 83 +21 +21 комфорт 1017.6 982.1
22 22.06 штиль 0 40 км н/о +18.3 +16.3 88 +19 +19 1017.9 982.3
23 22.06 В 2 29 км н/о +17.9 +16.1 89 +18 +18 1017.7 982.0
00 23.06 нст 2 26 км н/о +18.1 +16.6 91 +19 +19 1016.7 981.1
01 23.06 нст 2 н/о н/о +18.7 +16.8 89 +20 +20 1016.8 981.3
02 23.06 нст 3 н/о н/о +19.0 +16.6 86 +21 +21 комфорт 1016.4 980.9
03 23.06 С 2 25 км 9/5 600 м
[Sc Ac trans Ci fib]
+19.0 +16.4 85 +21 +21 комфорт 1016.4 980.9
04 23.06 С 4 25 км 9/4 600 м
[Sc Ac trans Ci fib]
+19.4 +16.4 83 +21 +22 комфорт 1016.1 980.7
05 23.06 С 3 25 км 9/5 600 м
[Sc Ac trans Ci fib]
+19.8 +16.6 82 +23 +23 комфорт 1016.5 981.1
06 23.06 С 3 20 км 10/10 570 м
[Sc]
+20.8 +17.0 79 +25 +25 комфорт 1016.9 981.6 +17.9
07 23.06 С 3 20 км 9/9 570 м
[Sc Ac trans]
+21.9 +17.1 74 +26 +27 душно 1016.3 981.2
08 23.06 С 2 20 км 9/9 700 м
[Sc Ac lent]
+21.7 +17.3 76 +26 +27 душно 1016.4 981.3
09 23.06 С 4 25 км 6/6 700 м
[Cu Sc]
+23.1 +17.3 70 +28 +33 душно 1016.5 981.5
10 23.06 С 6 30 км 5/5 930 м
[Cu hum Ac lent]
+24.5 +17.3 64 +28 +32 душно 1015.9 981.1
11 23.06 СВ 9 30 км 6/6 1000 м
[Cu hum Ac trans]
+25.0 +16.7 60 +29 +29 душно 1016.0 981.2
12 23.06 С 3 30 км 6/6 1080 м
[Cu hum Ac trans]
+24.7 +17.0 62 +28 +34 душно 1015.8 981.0
13 23.06 С 5 30 км 5/5 1110 м
[Cu hum Ac trans]
+25.2 +17.2 61 +29 +33 душно 1015.6 980.9
14 23.06 С 4 30 км 8/5 1110 м
[Cu hum Ac trans Ci fib]
+24.8 +15.4 56 +28 +30 жарко 1015.5 980.7
15 23.06 С 4 35 км 6/4 1110 м
[Cu hum Ac trans Ci ing]
+24.3 +15.5 58 +27 +30 жарко 1015.4 980.6
16 23.06 С 2 35 км 9/9 1300 м
[Cu hum Ac As]
+23.8 +15.6 60 +27 +27 жарко 1015.8 980.9
17 23.06 С 6 30 км 9/9 1300 м
[Cu hum Ac As]
+23.6 +15.4 60 +27 +27 жарко 1016.4 981.4
18 23.06 С 3 30 км 9/9 1110 м
[Sc Ac lent]
+22.9 +15.5 63 +27 +27 душно 1016.8 981.8 +25.9
19 23.06 С 5 30 км 6/0 2000 м
[Ac As Cs]
+21.8 +16.1 70 +26 +26 душно 1017.0 981.8
20 23.06 СЗ 7 25 км 5/0
[Ac As]
+21.4 +16.2 72 +25 +25 комфорт 1017.4 982.2
21 23.06 нст 3 55 км н/о +20.9 +16.5 76 +25 +25 комфорт 1017.6 982.3
22 23.06 нст 4 60 км н/о +20.6 +16.2 76 +24 +24 комфорт 1018.0 982.6
23 23.06 нст 4 60 км н/о +20.3 +16.6 79 +23 +23 комфорт 1018.2 982.8
00 24.06 нст 4 55 км н/о +19.7 +16.4 81 +22 +22 комфорт 1018.5 983.0
01 24.06 С 5 50 км н/о +19.8 +16.4 81 +22 +22 комфорт 1018.8 983.3
02 24.06 С 5 50 км н/о +19.8 +16.4 81 +22 +22 комфорт 1018.4 983.0
03 24.06 СЗ 6 25 км 10/10 750 м
[Sc]
+19.7 +16.6 82 +22 +22 комфорт 1019.1 983.6
04 24.06 С 2 20 км 9/9 800 м
[Sc diur, vesp]
+20.0 +16.4 80 +23 +23 комфорт 1019.4 983.9
05 24.06 С 4 20 км 9/9 720 м
[Sc]
+19.8 +16.3 80 +22 +22 комфорт 1019.9 984.4
06 24.06 С 3 20 км 9/9 700 м
[Sc]
+20.1 +16.6 80 +23 +24 комфорт 1019.9 984.4 +19.6
07 24.06 С 4 20 км 9/9 700 м
[Sc]
+20.4 +16.6 79 +24 +24 комфорт 1020.4 984.9
08 24.06 С 5 20 км 9/9 700 м
[Sc]
+21.1 +16.9 77 +25 +25 комфорт 1020.4 985.0
09 24.06 С 4 20 км 9/9 800 м
[Sc]
+22.0 +16.3 70 +26 +27 душно 1020.5 985.2
10 24.06 С 4 20 км 9/9 900 м
[Sc]
+23.3 +15.9 63 +28 +29 душно 1020.6 985.5
11 24.06 С 5 20 км 9/9 1200 м
[Sc]
+23.7 +16.0 62 +27 +28 жарко 1020.9 985.8
12 24.06 С 5 30 км 9/9 1200 м
[Sc]
+24.5 +17.0 63 +28 +29 душно 1021.0 986.0
13 24.06 С 4 30 км 6/6 800 м
[Cu Sc]
+23.2 +17.0 68 +28 +32 душно 1021.4 986.2
14 24.06 С 4 30 км 5/5 800 м
[Cu Sc]
+23.7 +17.2 67 +28 +31 душно 1021.4 986.3
15 24.06 С 5 30 км 5/5 720 м
[Cu Sc]
+22.9 +16.9 69 +28 +29 душно 1021.7 986.5
16 24.06 С 4 30 км 8/8 700 м
[Sc]
+22.1 +17.0 73 +27 +27 душно 1022.0 986.7
17 24.06 С 4 30 км 6/6 700 м
[Sc]
+21.8 +17.2 75 +26 +26 душно 1022.2 986.9
18 24.06 С 3 30 км 6/6 700 м
[Sc]
+21.3 +17.1 77 +25 +25 комфорт 1022.6 987.2 +24.5
19 24.06 С 3 20 км 9/9 660 м
[Sc]
+21.0 +17.2 79 +25 +25 комфорт 1023.2 987.7
20 24.06 С 3 20 км 8/8 630 м
[Sc]
+20.4 +17.2 82 +24 +24 комфорт 1023.8 988.2
21 24.06 нст 3 29 км н/о +19.0 +16.8 87 +21 +21 комфорт 1024.4 988.6
22 24.06 нст 1 30 км н/о +18.4 +16.2 87 +20 +20 1024.4 988.6
23 24.06 СВ 2 30 км н/о +17.9 +16.1 89 +18 +18 1024.3 988.4
00 25.06 нст 3 28 км н/о +17.9 +16.2 90 +18 +18 1024.0 988.1
01 25.06 В 2 24 км н/о +17.5 +15.8 90 +18 +18 1024.1 988.2
02 25.06 СВ 2 20 км н/о +16.8 +15.5 92 +17 +17 1024.3 988.3
03 25.06 штиль 0 10 км ясно +16.3 +15.0 92 +16 +16 1024.8 988.7
05 25.06 СЗ 1 10 км ясно +20.5 +16.9 80 +25 +28 комфорт 1024.5 988.9
06 25.06 штиль 0 10 км ясно +22.6 +17.3 72 +27 +36 душно 1024.6 989.3 +15.7
07 25.06 С 2 20 км ясно +23.7 +17.9 70 +28 +37 душно 1024.4 989.2
08 25.06 С 2 20 км 1/1 900 м
[Cu hum]
+25.2 +17.7 63 +29 +41 душно 1024.3 989.3
09 25.06 С 2 20 км 1/1 1020 м
[Cu hum]
+26.9 +16.5 53 +30 +45 душно 1024.2 989.4
10 25.06 СВ 2 20 км 1/1 1200 м
[Cu hum]
+27.2 +16.8 53 +31 +47 душно 1024.3 989.5
11 25.06 СВ 2 20 км 3/3 1350 м
[Cu hum]
+28.1 +15.1 45 +31 +43 душно 1024.2 989.5

 

Местоположение метеостанции Прешов (Словакия): широта 49.03 долгота 21.32 высота над уровнем моря 307 м.

В архиве по умолчанию представлена погода в Прешове за последнюю неделю. Архивные данные за месяц целиком и за предыдущие месяцы, начиная с января 2011 года, Вы можете получить, выбрав интересующий диапазон дат из раскрывающегося списка и нажав кнопку "Ввод!".


*Определитесь, кто Вы:
робот инопланетянин человек

Внимание! Время в таблицах - всемирное. Для получения местного времени необходимо прибавить поправку, которая равна 1 ч.

Смотрите также архив погоды в соседних городах и на ближайших метеорологических станциях:

Погода в Стропкове (Словакия) (32 км)
Погода на Станции Kojsovska Hola (Словакия) (37 км)
Погода в Кошице (Словакия) (41 км)
Погода в Мильхостове (Словакия) (50 км)
Погода в Каменице-над-Сирочью (Словакия) (51 км)
Погода в Попрад-Гановце (Словакия) (73 км)
Погода в Попраде (Словакия) (78 км)
Погода в Кросно (Польша) (79 км)
Погода в Новы-Сонч (Польша) (80 км)
Погода на Ломницком Штите (Словакия) (82 км)

Пояснения к столбцам:

Ветер - указаны скорость ветра в м/с - средняя за 10 мин, порывы в срок и между сроками (в фигурных скобках) и направление, откуда дует ветер: С - северный, СВ - северо-восточный, В - восточный, ЮВ - юго-восточный, Ю - южный, ЮЗ - юго-западный, З - западный, СЗ - северо-западный.
Видимость - горизонтальная дальность видимости в метрах или километрах. При видимости от 1 до 10 км при отсутствии осадков обычно наблюдается дымка, при ухудшении видимости до 1 км и менее - туман. В сухую погоду видимость может ухудшаться дымом, пылью или мглою.
Явления - указаны атмосферные явления, наблюдавшиеся в срок или в последний час перед сроком; фигурными скобками обозначены явления, наблюдавшиеся между сроками (за 1-3 часа до срока); квадратными скобками обозначены град или гололедные отложения с указанием их диаметра в мм.
Облачность - указаны через наклонную черту общая и нижняя облачность в баллах и высота нижней границы облаков в метрах; квадратными скобками обозначены формы облаков: Ci - перистые, Cs - перисто-слоистые, Cc - перисто-кучевые, Ac - высококучевые, As - высокослоистые, Sc - слоисто-кучевые, Ns - слоисто-дождевые, Cu - кучевые, Cb - кучево-дождевые. Подробнее классификацию облаков см. в Атласе облаков (PDF).
T - Температура воздуха - температура, измеренная на высоте 2 м над землей.
Td - Температура точки росы - температура, при понижении до которой содержащийся в воздухе водяной пар достигнет насыщения.
f - Относительная влажность воздуха - влажноcть воздуха, измеренная на высоте 2 м над землей.
Te - Эффективная температура - температура, которую ощущает одетый по сезону человек в тени. Характеристика душности погоды. При расчете учитывается влияние влажности воздуха и скорости ветра на теплоощущения человека.
Tes - Эффективная температура на солнце - температура, которую ощущает человек, с поправкой на солнечный нагрев. Характеристика знойности погоды. Зависит от высоты солнца над горизонтом, облачности и скорости ветра. Ночью, в пасмурную погоду, а также при ветре 12 м/с и более поправка равна нулю.
P - Атмосферное давление - приведенное к уровню моря атмосферное давление.
Po - Атмосферное давление - измеренное на уровне метеостанции атмосферное давление.
Tmin - Минимальная температура - минимум температуры воздуха на высоте 2 м над землей.
Tmax - Максимальная температура - максимум температуры воздуха на высоте 2 м над землей.
R - Количество осадков - Количество выпавших осадков за период времени, мм. При наведении курсора мыши на число - период времени, за который выпало указанное количество осадков.
R24 - Количество осадков - Количество выпавших осадков за 24 часа, мм.
S - Снежный покров - Высота снежного покрова, см. При наведении курсора мыши на число - состояние снежного покрова и степень покрытия местности в баллах.